Location: Fort Wayne
(41.1310°N, 85.1290°W)
Time: 21:34:22
(UTC-04:00)

Cosmos 1953 - Visible Passes

Search period start: 19 June 2018 00:00
Search period end: 29 June 2018 00:00
Orbit: 539 x 560 km, 82.5° (Epoch: 19 June)

Date Brightness Start Highest point End Pass type
(mag) Time Alt. Az. Time Alt. Az. Time Alt. Az.
19 Jun 2.9 21:58:48 10° NNW 22:02:44 58° W 22:06:39 10° S visible
20 Jun 3.1 21:54:25 10° NNW 21:58:18 52° W 22:02:12 10° S visible
21 Jun 3.3 21:50:02 10° NNW 21:53:53 47° W 21:57:43 10° SSW visible
22 Jun 3.6 21:45:39 10° NNW 21:49:27 43° W 21:53:15 10° SSW visible
